Location: Bothwell
(42.3833°S, 147.0000°E)
Time: 09:07:44
(UTC+10:00)

UNISAT 6 - Pass Details

Date: 14 August 2024
Orbit: 589 x 662 km, 97.7° (Epoch: 14 September)

Event Time Altitude Azimuth Distance (km) Brightness Sun altitude
Rises 05:00:33 0° 170° (S) 3,046 ? -23.6°
Reaches altitude 10° 05:02:49 10° 172° (S) 2,125 ? -23.2°
Maximum altitude 05:07:27 71° 255° (WSW) 715 ? -22.3°
Enters shadow 05:08:46 45° 323° (NW) 910 ? -22.1°
